Year,Month,Day,Hour,Minute,Value (Times are PST for insolation in W/m^2)
2008,08,01,00,00,0.00
2008,08,01,00,01,0.00
2008,08,01,00,02,0.00
2008,08,01,00,03,0.00
2008,08,01,00,04,0.00
2008,08,01,00,05,0.00
2008,08,01,00,06,0.00
2008,08,01,00,07,0.00
2008,08,01,00,08,0.00
2008,08,01,00,09,0.00
2008,08,01,00,10,0.00
2008,08,01,00,11,0.00
2008,08,01,00,12,0.00
2008,08,01,00,13,0.00
2008,08,01,00,14,0.00
2008,08,01,00,15,0.00
2008,08,01,00,16,0.00
2008,08,01,00,17,0.00
2008,08,01,00,18,0.00
2008,08,01,00,19,0.00
2008,08,01,00,20,0.00
2008,08,01,00,21,0.00
2008,08,01,00,22,0.00
2008,08,01,00,23,0.00
2008,08,01,00,24,0.00
2008,08,01,00,25,0.00
2008,08,01,00,26,0.00
2008,08,01,00,27,0.00
2008,08,01,00,28,0.00
2008,08,01,00,29,0.00
2008,08,01,00,30,0.00
2008,08,01,00,31,0.00
2008,08,01,00,32,0.00
2008,08,01,00,33,0.00
2008,08,01,00,34,0.00
2008,08,01,00,35,0.00
2008,08,01,00,36,0.00
2008,08,01,00,37,0.00
2008,08,01,00,38,0.00
2008,08,01,00,39,0.00
2008,08,01,00,40,0.00
2008,08,01,00,41,0.00
2008,08,01,00,42,0.00
2008,08,01,00,43,0.00
2008,08,01,00,44,0.00
2008,08,01,00,45,0.00
2008,08,01,00,46,0.00
2008,08,01,00,47,0.00
2008,08,01,00,48,0.00
2008,08,01,00,49,0.00
2008,08,01,00,50,0.00
2008,08,01,00,51,0.00
2008,08,01,00,52,0.00
2008,08,01,00,53,0.00
2008,08,01,00,54,0.00
2008,08,01,00,55,0.00
2008,08,01,00,56,0.00
2008,08,01,00,57,0.00
2008,08,01,00,58,0.00
2008,08,01,00,59,0.00
2008,08,01,01,00,0.00
2008,08,01,01,01,0.00
2008,08,01,01,02,0.00
2008,08,01,01,03,0.00
2008,08,01,01,04,0.00
2008,08,01,01,05,0.00
2008,08,01,01,06,0.00
2008,08,01,01,07,0.00
2008,08,01,01,08,0.00
2008,08,01,01,09,0.00
2008,08,01,01,10,0.00
2008,08,01,01,11,0.00
2008,08,01,01,12,0.00
2008,08,01,01,13,0.00
2008,08,01,01,14,0.00
2008,08,01,01,15,0.00
2008,08,01,01,16,0.00
2008,08,01,01,17,0.00
2008,08,01,01,18,0.00
2008,08,01,01,19,0.00
2008,08,01,01,20,0.00
2008,08,01,01,21,0.00
2008,08,01,01,22,0.00
2008,08,01,01,23,0.00
2008,08,01,01,24,0.00
2008,08,01,01,25,0.00
2008,08,01,01,26,0.00
2008,08,01,01,27,0.00
2008,08,01,01,28,0.00
2008,08,01,01,29,0.00
2008,08,01,01,30,0.00
2008,08,01,01,31,0.00
2008,08,01,01,32,0.00
2008,08,01,01,33,0.00
2008,08,01,01,34,0.00
2008,08,01,01,35,0.00
2008,08,01,01,36,0.00
2008,08,01,01,37,0.00
2008,08,01,01,38,0.00
2008,08,01,01,39,0.00
2008,08,01,01,40,0.00
2008,08,01,01,41,0.00
2008,08,01,01,42,0.00
2008,08,01,01,43,0.00
2008,08,01,01,44,0.00
2008,08,01,01,45,0.00
2008,08,01,01,46,0.00
2008,08,01,01,47,0.00
2008,08,01,01,48,0.00
2008,08,01,01,49,0.00
2008,08,01,01,50,0.00
2008,08,01,01,51,0.00
2008,08,01,01,52,0.00
2008,08,01,01,53,0.00
2008,08,01,01,54,0.00
2008,08,01,01,55,0.00
2008,08,01,01,56,0.00
2008,08,01,01,57,0.00
2008,08,01,01,58,0.00
2008,08,01,01,59,0.00
2008,08,01,02,00,0.00
2008,08,01,02,01,0.00
2008,08,01,02,02,0.00
2008,08,01,02,03,0.00
2008,08,01,02,04,0.00
2008,08,01,02,05,0.00
2008,08,01,02,06,0.00
2008,08,01,02,07,0.00
2008,08,01,02,08,0.00
2008,08,01,02,09,0.00
2008,08,01,02,10,0.00
2008,08,01,02,11,0.00
2008,08,01,02,12,0.00
2008,08,01,02,13,0.00
2008,08,01,02,14,0.00
2008,08,01,02,15,0.00
2008,08,01,02,16,0.00
2008,08,01,02,17,0.00
2008,08,01,02,18,0.00
2008,08,01,02,19,0.00
2008,08,01,02,20,0.00
2008,08,01,02,21,0.00
2008,08,01,02,22,0.00
2008,08,01,02,23,0.00
2008,08,01,02,24,0.00
2008,08,01,02,25,0.00
2008,08,01,02,26,0.00
2008,08,01,02,27,0.00
2008,08,01,02,28,0.00
2008,08,01,02,29,0.00
2008,08,01,02,30,0.00
2008,08,01,02,31,0.00
2008,08,01,02,32,0.00
2008,08,01,02,33,0.00
2008,08,01,02,34,0.00
2008,08,01,02,35,0.00
2008,08,01,02,36,0.00
2008,08,01,02,37,0.00
2008,08,01,02,38,0.00
2008,08,01,02,39,0.00
2008,08,01,02,40,0.00
2008,08,01,02,41,0.00
2008,08,01,02,42,0.00
2008,08,01,02,43,0.00
2008,08,01,02,44,0.00
2008,08,01,02,45,0.00
2008,08,01,02,46,0.00
2008,08,01,02,47,0.00
2008,08,01,02,48,0.00
2008,08,01,02,49,0.00
2008,08,01,02,50,0.00
2008,08,01,02,51,0.00
2008,08,01,02,52,0.00
2008,08,01,02,53,0.00
2008,08,01,02,54,0.00
2008,08,01,02,55,0.00
2008,08,01,02,56,0.00
2008,08,01,02,57,0.00
2008,08,01,02,58,0.00
2008,08,01,02,59,0.00
2008,08,01,03,00,0.00
2008,08,01,03,01,0.00
2008,08,01,03,02,0.00
2008,08,01,03,03,0.00
2008,08,01,03,04,0.00
2008,08,01,03,05,0.00
2008,08,01,03,06,0.00
2008,08,01,03,07,0.00
2008,08,01,03,08,0.00
2008,08,01,03,09,0.00
2008,08,01,03,10,0.00
2008,08,01,03,11,0.00
2008,08,01,03,12,0.00
2008,08,01,03,13,0.00
2008,08,01,03,14,0.00
2008,08,01,03,15,0.00
2008,08,01,03,16,0.00
2008,08,01,03,17,0.00
2008,08,01,03,18,0.00
2008,08,01,03,19,0.00
2008,08,01,03,20,0.00
2008,08,01,03,21,0.00
2008,08,01,03,22,0.00
2008,08,01,03,23,0.00
2008,08,01,03,24,0.00
2008,08,01,03,25,0.00
2008,08,01,03,26,0.00
2008,08,01,03,27,0.00
2008,08,01,03,28,0.00
2008,08,01,03,29,0.00
2008,08,01,03,30,0.00
2008,08,01,03,31,0.00
2008,08,01,03,32,0.00
2008,08,01,03,33,0.00
2008,08,01,03,34,0.00
2008,08,01,03,35,0.00
2008,08,01,03,36,0.00
2008,08,01,03,37,0.00
2008,08,01,03,38,0.00
2008,08,01,03,39,0.00
2008,08,01,03,40,0.00
2008,08,01,03,41,0.00
2008,08,01,03,42,0.00
2008,08,01,03,43,0.00
2008,08,01,03,44,0.00
2008,08,01,03,45,0.00
2008,08,01,03,46,0.00
2008,08,01,03,47,0.00
2008,08,01,03,48,0.00
2008,08,01,03,49,0.00
2008,08,01,03,50,0.00
2008,08,01,03,51,0.00
2008,08,01,03,52,0.00
2008,08,01,03,53,0.00
2008,08,01,03,54,0.00
2008,08,01,03,55,0.00
2008,08,01,03,56,0.00
2008,08,01,03,57,0.00
2008,08,01,03,58,0.00
2008,08,01,03,59,0.00
2008,08,01,04,00,0.00
2008,08,01,04,01,0.00
2008,08,01,04,02,0.00
2008,08,01,04,03,0.00
2008,08,01,04,04,0.00
2008,08,01,04,05,0.00
2008,08,01,04,06,0.00
2008,08,01,04,07,0.00
2008,08,01,04,08,0.00
2008,08,01,04,09,0.00
2008,08,01,04,10,0.00
2008,08,01,04,11,0.00
2008,08,01,04,12,0.00
2008,08,01,04,13,0.00
2008,08,01,04,14,0.00
2008,08,01,04,15,0.00
2008,08,01,04,16,0.00
2008,08,01,04,17,0.00
2008,08,01,04,18,0.00
2008,08,01,04,19,0.00
2008,08,01,04,20,0.00
2008,08,01,04,21,0.00
2008,08,01,04,22,0.00
2008,08,01,04,23,0.00
2008,08,01,04,24,0.00
2008,08,01,04,25,0.00
2008,08,01,04,26,0.00
2008,08,01,04,27,0.00
2008,08,01,04,28,0.00
2008,08,01,04,29,0.00
2008,08,01,04,30,0.00
2008,08,01,04,31,0.00
2008,08,01,04,32,0.00
2008,08,01,04,33,0.00
2008,08,01,04,34,0.00
2008,08,01,04,35,0.00
2008,08,01,04,36,0.00
2008,08,01,04,37,0.00
2008,08,01,04,38,0.00
2008,08,01,04,39,0.00
2008,08,01,04,40,0.00
2008,08,01,04,41,0.00
2008,08,01,04,42,0.00
2008,08,01,04,43,0.00
2008,08,01,04,44,0.00
2008,08,01,04,45,0.00
2008,08,01,04,46,0.00
2008,08,01,04,47,0.00
2008,08,01,04,48,0.00
2008,08,01,04,49,0.00
2008,08,01,04,50,0.00
2008,08,01,04,51,0.00
2008,08,01,04,52,0.00
2008,08,01,04,53,0.00
2008,08,01,04,54,0.00
2008,08,01,04,55,0.00
2008,08,01,04,56,0.00
2008,08,01,04,57,0.00
2008,08,01,04,58,0.00
2008,08,01,04,59,0.00
2008,08,01,05,00,0.00
2008,08,01,05,01,0.00
2008,08,01,05,02,0.00
2008,08,01,05,03,0.00
2008,08,01,05,04,0.00
2008,08,01,05,05,0.00
2008,08,01,05,06,0.00
2008,08,01,05,07,0.00
2008,08,01,05,08,0.00
2008,08,01,05,09,0.00
2008,08,01,05,10,0.00
2008,08,01,05,11,0.00
2008,08,01,05,12,0.00
2008,08,01,05,13,0.00
2008,08,01,05,14,0.00
2008,08,01,05,15,0.00
2008,08,01,05,16,0.00
2008,08,01,05,17,0.00
2008,08,01,05,18,0.00
2008,08,01,05,19,0.00
2008,08,01,05,20,0.00
2008,08,01,05,21,0.00
2008,08,01,05,22,0.00
2008,08,01,05,23,0.00
2008,08,01,05,24,0.00
2008,08,01,05,25,0.00
2008,08,01,05,26,0.00
2008,08,01,05,27,0.00
2008,08,01,05,28,0.00
2008,08,01,05,29,0.00
2008,08,01,05,30,0.00
2008,08,01,05,31,0.00
2008,08,01,05,32,0.00
2008,08,01,05,33,0.00
2008,08,01,05,34,0.00
2008,08,01,05,35,0.00
2008,08,01,05,36,0.00
2008,08,01,05,37,0.00
2008,08,01,05,38,0.00
2008,08,01,05,39,0.00
2008,08,01,05,40,0.00
2008,08,01,05,41,0.00
2008,08,01,05,42,0.00
2008,08,01,05,43,0.00
2008,08,01,05,44,0.00
2008,08,01,05,45,0.00
2008,08,01,05,46,0.00
2008,08,01,05,47,0.00
2008,08,01,05,48,0.00
2008,08,01,05,49,0.00
2008,08,01,05,50,0.00
2008,08,01,05,51,0.00
2008,08,01,05,52,0.00
2008,08,01,05,53,0.00
2008,08,01,05,54,0.00
2008,08,01,05,55,0.00
2008,08,01,05,56,4.50
2008,08,01,05,57,5.00
2008,08,01,05,58,5.00
2008,08,01,05,59,5.00
2008,08,01,06,00,5.00
2008,08,01,06,01,5.00
2008,08,01,06,02,5.00
2008,08,01,06,03,5.00
2008,08,01,06,04,5.60
2008,08,01,06,05,7.00
2008,08,01,06,06,7.00
2008,08,01,06,07,7.00
2008,08,01,06,08,7.00
2008,08,01,06,09,7.40
2008,08,01,06,10,9.00
2008,08,01,06,11,9.00
2008,08,01,06,12,10.30
2008,08,01,06,13,11.00
2008,08,01,06,14,11.00
2008,08,01,06,15,12.00
2008,08,01,06,16,11.60
2008,08,01,06,17,11.00
2008,08,01,06,18,11.00
2008,08,01,06,19,11.80
2008,08,01,06,20,12.00
2008,08,01,06,21,12.40
2008,08,01,06,22,14.00
2008,08,01,06,23,14.00
2008,08,01,06,24,15.20
2008,08,01,06,25,17.70
2008,08,01,06,26,16.20
2008,08,01,06,27,16.00
2008,08,01,06,28,16.00
2008,08,01,06,29,16.00
2008,08,01,06,30,17.40
2008,08,01,06,31,18.00
2008,08,01,06,32,19.00
2008,08,01,06,33,19.00
2008,08,01,06,34,19.00
2008,08,01,06,35,19.00
2008,08,01,06,36,19.00
2008,08,01,06,37,19.00
2008,08,01,06,38,19.30
2008,08,01,06,39,21.00
2008,08,01,06,40,21.90
2008,08,01,06,41,23.00
2008,08,01,06,42,24.50
2008,08,01,06,43,25.00
2008,08,01,06,44,26.00
2008,08,01,06,45,26.00
2008,08,01,06,46,26.00
2008,08,01,06,47,26.00
2008,08,01,06,48,26.00
2008,08,01,06,49,26.00
2008,08,01,06,50,25.80
2008,08,01,06,51,25.00
2008,08,01,06,52,25.00
2008,08,01,06,53,25.60
2008,08,01,06,54,27.60
2008,08,01,06,55,28.10
2008,08,01,06,56,30.00
2008,08,01,06,57,30.70
2008,08,01,06,58,32.00
2008,08,01,06,59,30.70
2008,08,01,07,00,30.00
2008,08,01,07,01,30.00
2008,08,01,07,02,29.60
2008,08,01,07,03,28.00
2008,08,01,07,04,27.00
2008,08,01,07,05,27.30
2008,08,01,07,06,29.70
2008,08,01,07,07,30.30
2008,08,01,07,08,32.70
2008,08,01,07,09,32.00
2008,08,01,07,10,30.90
2008,08,01,07,11,30.00
2008,08,01,07,12,30.00
2008,08,01,07,13,30.20
2008,08,01,07,14,32.30
2008,08,01,07,15,33.00
2008,08,01,07,16,34.10
2008,08,01,07,17,35.00
2008,08,01,07,18,35.00
2008,08,01,07,19,33.30
2008,08,01,07,20,35.60
2008,08,01,07,21,37.90
2008,08,01,07,22,39.00
2008,08,01,07,23,39.80
2008,08,01,07,24,40.00
2008,08,01,07,25,46.00
2008,08,01,07,26,46.90
2008,08,01,07,27,50.00
2008,08,01,07,28,52.30
2008,08,01,07,29,53.80
2008,08,01,07,30,57.80
2008,08,01,07,31,57.20
2008,08,01,07,32,53.70
2008,08,01,07,33,53.00
2008,08,01,07,34,53.00
2008,08,01,07,35,53.80
2008,08,01,07,36,55.70
2008,08,01,07,37,58.30
2008,08,01,07,38,58.00
2008,08,01,07,39,52.30
2008,08,01,07,40,52.30
2008,08,01,07,41,53.00
2008,08,01,07,42,54.00
2008,08,01,07,43,77.40
2008,08,01,07,44,80.80
2008,08,01,07,45,79.40
2008,08,01,07,46,73.10
2008,08,01,07,47,72.00
2008,08,01,07,48,69.90
2008,08,01,07,49,70.20
2008,08,01,07,50,74.00
2008,08,01,07,51,74.00
2008,08,01,07,52,230.80
2008,08,01,07,53,276.00
2008,08,01,07,54,275.10
2008,08,01,07,55,240.90
2008,08,01,07,56,226.60
2008,08,01,07,57,247.70
2008,08,01,07,58,290.80
2008,08,01,07,59,305.50
2008,08,01,08,00,316.10
2008,08,01,08,01,332.10
2008,08,01,08,02,343.00
2008,08,01,08,03,343.00
2008,08,01,08,04,385.40
2008,08,01,08,05,396.00
2008,08,01,08,06,410.40
2008,08,01,08,07,409.60
2008,08,01,08,08,443.00
2008,08,01,08,09,443.00
2008,08,01,08,10,435.90
2008,08,01,08,11,434.00
2008,08,01,08,12,185.60
2008,08,01,08,13,183.70
2008,08,01,08,14,186.50
2008,08,01,08,15,191.30
2008,08,01,08,16,197.90
2008,08,01,08,17,204.10
2008,08,01,08,18,212.70
2008,08,01,08,19,220.00
2008,08,01,08,20,223.70
2008,08,01,08,21,227.00
2008,08,01,08,22,229.60
2008,08,01,08,23,234.00
2008,08,01,08,24,234.50
2008,08,01,08,25,239.20
2008,08,01,08,26,247.50
2008,08,01,08,27,251.00
2008,08,01,08,28,248.40
2008,08,01,08,29,238.90
2008,08,01,08,30,226.40
2008,08,01,08,31,212.30
2008,08,01,08,32,201.30
2008,08,01,08,33,199.70
2008,08,01,08,34,199.10
2008,08,01,08,35,193.90
2008,08,01,08,36,184.00
2008,08,01,08,37,177.70
2008,08,01,08,38,162.90
2008,08,01,08,39,150.80
2008,08,01,08,40,149.00
2008,08,01,08,41,150.30
2008,08,01,08,42,144.90
2008,08,01,08,43,140.60
2008,08,01,08,44,136.60
2008,08,01,08,45,129.30
2008,08,01,08,46,119.10
2008,08,01,08,47,113.00
2008,08,01,08,48,113.00
2008,08,01,08,49,110.00
2008,08,01,08,50,105.10
2008,08,01,08,51,100.80
2008,08,01,08,52,98.10
2008,08,01,08,53,90.50
2008,08,01,08,54,74.40
2008,08,01,08,55,71.00
2008,08,01,08,56,72.00
2008,08,01,08,57,77.90
2008,08,01,08,58,93.00
2008,08,01,08,59,108.40
2008,08,01,09,00,112.30
2008,08,01,09,01,102.90
2008,08,01,09,02,88.40
2008,08,01,09,03,84.00
2008,08,01,09,04,90.10
2008,08,01,09,05,100.30
2008,08,01,09,06,110.90
2008,08,01,09,07,117.20
2008,08,01,09,08,120.70
2008,08,01,09,09,120.10
2008,08,01,09,10,122.20
2008,08,01,09,11,139.00
2008,08,01,09,12,164.50
2008,08,01,09,13,199.70
2008,08,01,09,14,225.10
2008,08,01,09,15,240.70
2008,08,01,09,16,250.80
2008,08,01,09,17,251.80
2008,08,01,09,18,223.90
2008,08,01,09,19,205.50
2008,08,01,09,20,191.80
2008,08,01,09,21,181.60
2008,08,01,09,22,181.30
2008,08,01,09,23,181.90
2008,08,01,09,24,173.90
2008,08,01,09,25,159.60
2008,08,01,09,26,145.10
2008,08,01,09,27,137.90
2008,08,01,09,28,142.60
2008,08,01,09,29,155.70
2008,08,01,09,30,170.90
2008,08,01,09,31,183.00
2008,08,01,09,32,189.10
2008,08,01,09,33,192.60
2008,08,01,09,34,195.00
2008,08,01,09,35,198.30
2008,08,01,09,36,206.50
2008,08,01,09,37,210.10
2008,08,01,09,38,212.50
2008,08,01,09,39,218.00
2008,08,01,09,40,224.30
2008,08,01,09,41,231.50
2008,08,01,09,42,252.20
2008,08,01,09,43,255.70
2008,08,01,09,44,232.00
2008,08,01,09,45,245.10
2008,08,01,09,46,283.90
2008,08,01,09,47,291.20
2008,08,01,09,48,299.70
2008,08,01,09,49,313.00
2008,08,01,09,50,403.80
2008,08,01,09,51,398.10
2008,08,01,09,52,384.70
2008,08,01,09,53,361.30
2008,08,01,09,54,334.30
2008,08,01,09,55,318.60
2008,08,01,09,56,311.40
2008,08,01,09,57,316.40
2008,08,01,09,58,323.90
2008,08,01,09,59,333.70
2008,08,01,10,00,303.70
2008,08,01,10,01,272.80
2008,08,01,10,02,264.50
2008,08,01,10,03,261.40
2008,08,01,10,04,256.60
2008,08,01,10,05,253.00
2008,08,01,10,06,256.00
2008,08,01,10,07,267.80
2008,08,01,10,08,285.20
2008,08,01,10,09,304.30
2008,08,01,10,10,306.60
2008,08,01,10,11,308.50
2008,08,01,10,12,316.00
2008,08,01,10,13,332.60
2008,08,01,10,14,357.90
2008,08,01,10,15,390.00
2008,08,01,10,16,476.80
2008,08,01,10,17,638.00
2008,08,01,10,18,517.60
2008,08,01,10,19,428.20
2008,08,01,10,20,421.40
2008,08,01,10,21,402.70
2008,08,01,10,22,398.00
2008,08,01,10,23,401.90
2008,08,01,10,24,402.50
2008,08,01,10,25,404.20
2008,08,01,10,26,417.20
2008,08,01,10,27,491.10
2008,08,01,10,28,529.00
2008,08,01,10,29,478.30
2008,08,01,10,30,434.60
2008,08,01,10,31,380.00
2008,08,01,10,32,341.80
2008,08,01,10,33,353.80
2008,08,01,10,34,373.60
2008,08,01,10,35,403.00
2008,08,01,10,36,426.60
2008,08,01,10,37,444.00
2008,08,01,10,38,464.70
2008,08,01,10,39,496.90
2008,08,01,10,40,492.00
2008,08,01,10,41,473.90
2008,08,01,10,42,515.00
2008,08,01,10,43,454.10
2008,08,01,10,44,417.70
2008,08,01,10,45,412.40
2008,08,01,10,46,415.00
2008,08,01,10,47,427.40
2008,08,01,10,48,426.70
2008,08,01,10,49,435.80
2008,08,01,10,50,473.90
2008,08,01,10,51,533.00
2008,08,01,10,52,566.50
2008,08,01,10,53,610.00
2008,08,01,10,54,499.10
2008,08,01,10,55,473.00
2008,08,01,10,56,580.00
2008,08,01,10,57,580.00
2008,08,01,10,58,580.00
2008,08,01,10,59,580.00
2008,08,01,11,00,580.00
2008,08,01,11,01,580.00
2008,08,01,11,02,580.00
2008,08,01,11,03,580.00
2008,08,01,11,04,689.00
2008,08,01,11,05,840.10
2008,08,01,11,06,921.90
2008,08,01,11,07,886.00
2008,08,01,11,08,924.00
2008,08,01,11,09,921.00
2008,08,01,11,10,765.60
2008,08,01,11,11,649.00
2008,08,01,11,12,449.50
2008,08,01,11,13,452.50
2008,08,01,11,14,415.70
2008,08,01,11,15,424.60
2008,08,01,11,16,410.40
2008,08,01,11,17,428.60
2008,08,01,11,18,478.00
2008,08,01,11,19,458.30
2008,08,01,11,20,457.20
2008,08,01,11,21,476.90
2008,08,01,11,22,516.00
2008,08,01,11,23,543.50
2008,08,01,11,24,521.70
2008,08,01,11,25,579.40
2008,08,01,11,26,558.60
2008,08,01,11,27,555.00
2008,08,01,11,28,562.40
2008,08,01,11,29,599.50
2008,08,01,11,30,584.10
2008,08,01,11,31,590.60
2008,08,01,11,32,655.30
2008,08,01,11,33,709.70
2008,08,01,11,34,795.30
2008,08,01,11,35,824.00
2008,08,01,11,36,824.00
2008,08,01,11,37,782.50
2008,08,01,11,38,605.20
2008,08,01,11,39,640.90
2008,08,01,11,40,655.70
2008,08,01,11,41,648.30
2008,08,01,11,42,712.20
2008,08,01,11,43,815.20
2008,08,01,11,44,839.70
2008,08,01,11,45,895.00
2008,08,01,11,46,740.20
2008,08,01,11,47,747.40
2008,08,01,11,48,799.90
2008,08,01,11,49,893.00
2008,08,01,11,50,893.00
2008,08,01,11,51,893.00
2008,08,01,11,52,876.80
2008,08,01,11,53,871.40
2008,08,01,11,54,912.20
2008,08,01,11,55,916.00
2008,08,01,11,56,916.00
2008,08,01,11,57,1016.60
2008,08,01,11,58,1081.50
2008,08,01,11,59,1125.70
2008,08,01,12,00,1063.00
2008,08,01,12,01,1003.90
2008,08,01,12,02,856.00
2008,08,01,12,03,856.00
2008,08,01,12,04,968.70
2008,08,01,12,05,1025.00
2008,08,01,12,06,1277.90
2008,08,01,12,07,1290.00
2008,08,01,12,08,1290.00
2008,08,01,12,09,1290.00
2008,08,01,12,10,1184.40
2008,08,01,12,11,1213.30
2008,08,01,12,12,1223.80
2008,08,01,12,13,1169.00
2008,08,01,12,14,1169.00
2008,08,01,12,15,1169.00
2008,08,01,12,16,1169.00
2008,08,01,12,17,730.00
2008,08,01,12,18,673.70
2008,08,01,12,19,715.70
2008,08,01,12,20,712.80
2008,08,01,12,21,725.90
2008,08,01,12,22,728.00
2008,08,01,12,23,725.30
2008,08,01,12,24,681.10
2008,08,01,12,25,754.00
2008,08,01,12,26,656.60
2008,08,01,12,27,617.30
2008,08,01,12,28,714.00
2008,08,01,12,29,758.00
2008,08,01,12,30,745.80
2008,08,01,12,31,677.70
2008,08,01,12,32,656.00
2008,08,01,12,33,656.00
2008,08,01,12,34,656.00
2008,08,01,12,35,656.00
2008,08,01,12,36,682.80
2008,08,01,12,37,722.00
2008,08,01,12,38,670.00
2008,08,01,12,39,1130.70
2008,08,01,12,40,1330.00
2008,08,01,12,41,1274.30
2008,08,01,12,42,707.00
2008,08,01,12,43,593.00
2008,08,01,12,44,433.00
2008,08,01,12,45,455.00
2008,08,01,12,46,510.80
2008,08,01,12,47,488.00
2008,08,01,12,48,482.00
2008,08,01,12,49,482.00
2008,08,01,12,50,456.00
2008,08,01,12,51,438.00
2008,08,01,12,52,438.00
2008,08,01,12,53,384.00
2008,08,01,12,54,364.40
2008,08,01,12,55,351.80
2008,08,01,12,56,340.70
2008,08,01,12,57,333.40
2008,08,01,12,58,332.40
2008,08,01,12,59,333.50
2008,08,01,13,00,309.90
2008,08,01,13,01,299.50
2008,08,01,13,02,290.30
2008,08,01,13,03,280.70
2008,08,01,13,04,274.80
2008,08,01,13,05,281.70
2008,08,01,13,06,298.90
2008,08,01,13,07,319.40
2008,08,01,13,08,333.00
2008,08,01,13,09,342.80
2008,08,01,13,10,355.60
2008,08,01,13,11,369.70
2008,08,01,13,12,383.80
2008,08,01,13,13,397.40
2008,08,01,13,14,411.20
2008,08,01,13,15,433.00
2008,08,01,13,16,482.70
2008,08,01,13,17,532.00
2008,08,01,13,18,522.80
2008,08,01,13,19,502.50
2008,08,01,13,20,496.60
2008,08,01,13,21,497.60
2008,08,01,13,22,531.00
2008,08,01,13,23,531.00
2008,08,01,13,24,528.90
2008,08,01,13,25,529.80
2008,08,01,13,26,533.00
2008,08,01,13,27,533.00
2008,08,01,13,28,585.60
2008,08,01,13,29,549.60
2008,08,01,13,30,548.30
2008,08,01,13,31,519.70
2008,08,01,13,32,556.20
2008,08,01,13,33,623.70
2008,08,01,13,34,521.30
2008,08,01,13,35,475.00
2008,08,01,13,36,484.00
2008,08,01,13,37,465.40
2008,08,01,13,38,452.60
2008,08,01,13,39,413.10
2008,08,01,13,40,383.50
2008,08,01,13,41,373.70
2008,08,01,13,42,365.50
2008,08,01,13,43,360.00
2008,08,01,13,44,363.10
2008,08,01,13,45,369.30
2008,08,01,13,46,377.00
2008,08,01,13,47,383.20
2008,08,01,13,48,392.50
2008,08,01,13,49,405.70
2008,08,01,13,50,415.50
2008,08,01,13,51,410.80
2008,08,01,13,52,404.50
2008,08,01,13,53,396.40
2008,08,01,13,54,386.00
2008,08,01,13,55,373.90
2008,08,01,13,56,359.00
2008,08,01,13,57,351.80
2008,08,01,13,58,348.20
2008,08,01,13,59,341.50
2008,08,01,14,00,338.50
2008,08,01,14,01,336.70
2008,08,01,14,02,336.00
2008,08,01,14,03,334.50
2008,08,01,14,04,342.00
2008,08,01,14,05,356.90
2008,08,01,14,06,374.00
2008,08,01,14,07,382.20
2008,08,01,14,08,378.50
2008,08,01,14,09,364.00
2008,08,01,14,10,347.80
2008,08,01,14,11,333.60
2008,08,01,14,12,321.40
2008,08,01,14,13,312.30
2008,08,01,14,14,302.80
2008,08,01,14,15,293.60
2008,08,01,14,16,281.20
2008,08,01,14,17,267.00
2008,08,01,14,18,254.90
2008,08,01,14,19,247.30
2008,08,01,14,20,244.10
2008,08,01,14,21,246.80
2008,08,01,14,22,253.00
2008,08,01,14,23,259.40
2008,08,01,14,24,263.40
2008,08,01,14,25,264.00
2008,08,01,14,26,267.00
2008,08,01,14,27,271.10
2008,08,01,14,28,272.00
2008,08,01,14,29,270.40
2008,08,01,14,30,266.30
2008,08,01,14,31,264.20
2008,08,01,14,32,265.20
2008,08,01,14,33,270.70
2008,08,01,14,34,283.30
2008,08,01,14,35,301.30
2008,08,01,14,36,321.90
2008,08,01,14,37,342.50
2008,08,01,14,38,364.50
2008,08,01,14,39,411.60
2008,08,01,14,40,487.00
2008,08,01,14,41,487.00
2008,08,01,14,42,551.30
2008,08,01,14,43,508.10
2008,08,01,14,44,448.20
2008,08,01,14,45,393.80
2008,08,01,14,46,367.00
2008,08,01,14,47,337.40
2008,08,01,14,48,307.20
2008,08,01,14,49,282.90
2008,08,01,14,50,268.50
2008,08,01,14,51,265.00
2008,08,01,14,52,265.80
2008,08,01,14,53,267.00
2008,08,01,14,54,263.20
2008,08,01,14,55,257.50
2008,08,01,14,56,244.60
2008,08,01,14,57,235.00
2008,08,01,14,58,227.60
2008,08,01,14,59,223.80
2008,08,01,15,00,223.00
2008,08,01,15,01,223.00
2008,08,01,15,02,222.70
2008,08,01,15,03,221.00
2008,08,01,15,04,220.50
2008,08,01,15,05,218.70
2008,08,01,15,06,214.10
2008,08,01,15,07,209.20
2008,08,01,15,08,204.80
2008,08,01,15,09,198.90
2008,08,01,15,10,196.00
2008,08,01,15,11,192.90
2008,08,01,15,12,190.30
2008,08,01,15,13,187.90
2008,08,01,15,14,185.20
2008,08,01,15,15,182.20
2008,08,01,15,16,179.90
2008,08,01,15,17,178.30
2008,08,01,15,18,174.60
2008,08,01,15,19,169.10
2008,08,01,15,20,164.50
2008,08,01,15,21,162.60
2008,08,01,15,22,162.00
2008,08,01,15,23,162.70
2008,08,01,15,24,166.20
2008,08,01,15,25,171.80
2008,08,01,15,26,181.00
2008,08,01,15,27,193.40
2008,08,01,15,28,208.30
2008,08,01,15,29,229.20
2008,08,01,15,30,259.20
2008,08,01,15,31,306.20
2008,08,01,15,32,328.60
2008,08,01,15,33,350.90
2008,08,01,15,34,364.10
2008,08,01,15,35,367.00
2008,08,01,15,36,396.40
2008,08,01,15,37,490.30
2008,08,01,15,38,523.40
2008,08,01,15,39,485.90
2008,08,01,15,40,489.00
2008,08,01,15,41,542.40
2008,08,01,15,42,555.00
2008,08,01,15,43,555.00
2008,08,01,15,44,555.00
2008,08,01,15,45,577.00
2008,08,01,15,46,599.00
2008,08,01,15,47,599.00
2008,08,01,15,48,1002.00
2008,08,01,15,49,1102.00
2008,08,01,15,50,1102.00
2008,08,01,15,51,1102.00
2008,08,01,15,52,1102.00
2008,08,01,15,53,1102.00
2008,08,01,15,54,377.00
2008,08,01,15,55,357.60
2008,08,01,15,56,346.10
2008,08,01,15,57,329.20
2008,08,01,15,58,314.40
2008,08,01,15,59,302.40
2008,08,01,16,00,302.20
2008,08,01,16,01,303.20
2008,08,01,16,02,286.70
2008,08,01,16,03,268.70
2008,08,01,16,04,264.80
2008,08,01,16,05,264.00
2008,08,01,16,06,267.00
2008,08,01,16,07,285.50
2008,08,01,16,08,282.80
2008,08,01,16,09,298.00
2008,08,01,16,10,316.70
2008,08,01,16,11,336.60
2008,08,01,16,12,342.00
2008,08,01,16,13,332.00
2008,08,01,16,14,318.00
2008,08,01,16,15,306.60
2008,08,01,16,16,296.70
2008,08,01,16,17,294.20
2008,08,01,16,18,299.70
2008,08,01,16,19,305.40
2008,08,01,16,20,322.80
2008,08,01,16,21,334.50
2008,08,01,16,22,333.60
2008,08,01,16,23,343.20
2008,08,01,16,24,362.90
2008,08,01,16,25,379.90
2008,08,01,16,26,364.00
2008,08,01,16,27,375.50
2008,08,01,16,28,374.00
2008,08,01,16,29,364.60
2008,08,01,16,30,367.00
2008,08,01,16,31,367.00
2008,08,01,16,32,367.00
2008,08,01,16,33,367.00
2008,08,01,16,34,367.00
2008,08,01,16,35,307.70
2008,08,01,16,36,294.30
2008,08,01,16,37,262.10
2008,08,01,16,38,249.30
2008,08,01,16,39,232.20
2008,08,01,16,40,217.60
2008,08,01,16,41,214.50
2008,08,01,16,42,220.60
2008,08,01,16,43,235.10
2008,08,01,16,44,246.30
2008,08,01,16,45,251.60
2008,08,01,16,46,251.30
2008,08,01,16,47,238.10
2008,08,01,16,48,231.60
2008,08,01,16,49,236.40
2008,08,01,16,50,239.10
2008,08,01,16,51,241.00
2008,08,01,16,52,239.30
2008,08,01,16,53,236.00
2008,08,01,16,54,236.00
2008,08,01,16,55,234.20
2008,08,01,16,56,228.90
2008,08,01,16,57,218.50
2008,08,01,16,58,207.50
2008,08,01,16,59,196.00
2008,08,01,17,00,188.70
2008,08,01,17,01,185.50
2008,08,01,17,02,185.60
2008,08,01,17,03,183.70
2008,08,01,17,04,176.30
2008,08,01,17,05,167.30
2008,08,01,17,06,156.30
2008,08,01,17,07,146.50
2008,08,01,17,08,142.10
2008,08,01,17,09,141.70
2008,08,01,17,10,148.60